TimeCDT,TemperatureF,Dew PointF,Humidity,Sea Level PressureIn,VisibilityMPH,Wind Direction,Wind SpeedMPH,Gust SpeedMPH,PrecipitationIn,Events,Conditions,WindDirDegrees,DateUTC
12:53 AM,10.9,6.1,81,30.20,10.0,NNW,6.9,-,N/A,,Partly Cloudy,330,2013-03-23 05:53:00
1:53 AM,9.0,3.9,80,30.20,10.0,NNW,3.5,-,N/A,,Clear,330,2013-03-23 06:53:00
2:53 AM,10.9,5.0,77,30.20,10.0,North,4.6,-,N/A,,Overcast,350,2013-03-23 07:53:00
3:53 AM,10.9,5.0,77,30.21,10.0,Calm,Calm,-,N/A,,Overcast,0,2013-03-23 08:53:00
4:53 AM,10.9,5.0,77,30.21,10.0,Calm,Calm,-,N/A,,Overcast,0,2013-03-23 09:53:00
5:53 AM,10.9,3.9,73,30.21,10.0,Calm,Calm,-,N/A,,Mostly Cloudy,0,2013-03-23 10:53:00
6:53 AM,7.0,1.9,80,30.24,10.0,West,3.5,-,N/A,,Clear,280,2013-03-23 11:53:00
7:53 AM,3.9,-0.0,84,30.24,8.0,Calm,Calm,-,N/A,,Mostly Cloudy,0,2013-03-23 12:53:00
8:53 AM,10.0,3.9,76,30.25,10.0,Calm,Calm,-,N/A,,Overcast,0,2013-03-23 13:53:00
9:53 AM,15.1,8.1,74,30.25,10.0,NNW,3.5,-,N/A,,Overcast,340,2013-03-23 14:53:00
10:53 AM,17.1,9.0,71,30.25,10.0,NW,6.9,-,N/A,,Clear,320,2013-03-23 15:53:00
11:53 AM,19.9,10.9,68,30.25,10.0,North,6.9,-,N/A,,Clear,350,2013-03-23 16:53:00
12:53 PM,21.9,12.0,66,30.24,10.0,NNW,5.8,-,N/A,,Clear,330,2013-03-23 17:53:00
1:53 PM,24.1,15.1,69,30.23,10.0,NNW,9.2,-,N/A,,Clear,330,2013-03-23 18:53:00
2:53 PM,25.0,17.1,72,30.22,10.0,NNW,6.9,-,N/A,,Clear,340,2013-03-23 19:53:00
3:53 PM,26.1,17.1,69,30.21,10.0,NW,6.9,-,N/A,,Clear,320,2013-03-23 20:53:00
4:53 PM,27.0,18.0,69,30.22,10.0,NNW,8.1,-,N/A,,Clear,330,2013-03-23 21:53:00
5:53 PM,27.0,17.1,66,30.22,10.0,WNW,8.1,-,N/A,,Clear,300,2013-03-23 22:53:00
6:53 PM,25.0,17.1,72,30.24,10.0,NW,5.8,-,N/A,,Clear,320,2013-03-23 23:53:00
7:53 PM,23.0,16.0,74,30.25,10.0,WNW,5.8,-,N/A,,Clear,300,2013-03-24 00:53:00
8:53 PM,21.0,14.0,74,30.25,10.0,WNW,3.5,-,N/A,,Clear,300,2013-03-24 01:53:00
9:53 PM,17.1,10.9,77,30.25,10.0,NW,3.5,-,N/A,,Clear,310,2013-03-24 02:53:00
10:53 PM,12.9,9.0,84,30.25,10.0,WNW,4.6,-,N/A,,Clear,300,2013-03-24 03:53:00
11:53 PM,10.9,7.0,84,30.25,10.0,Calm,Calm,-,N/A,,Clear,0,2013-03-24 04:53:00